SCP
0 0 0 0 0 0 0 0 0 0 0 0 0 0 0 0 0 0 0 0 0 0 0 0 0 0 0
0 0 0 0 0 0 0 0 0 0 0 0 0 0 0 0 0 0 0 0 0 0 0 0 0 0 0
0 0 0 0 0 0 0 0 0 0 0 0 0 0 0 0 0 0 0 0 0 0 0 0 0 0 0
0 0 0 0 0 0 0 0 0 0 0 0 0 0 0 0 0 0 0 0 0 0 0 0 0 0 0
0 0 0 0 0 0 0 0 0 0 0 0 0 0 0 0 0 0 0 0 0 0 0 0 0 0 0
0 0 0 0 0 0 0 0 0 0 0 0 0 0 0 0 0 0 0 0 0 0 0 0 0 0 0
0 0 0 0 0 0 0 0 0 0 0 0 0 0 0 0 0 0 0 0 0 0 0 0 0 0 0
0 0 0 0 0 0 0 -0 0 -0 -0 -0 -0 -0 -0 0 0 0 0 0 0 0 0 0 0 0 0
0 0 0 0 0 0 0 0 0 0 -0 -0 -0 -0 -0 -0 -0 0 0 0 0 0 0 0 0 0 0
0 0 0 0 0 0 0 0 0 0 -0 -0 -0 -0 -0 -0 -0 -0 -0 0 0 0 0 0 0 0 0
0 0 0 0 0 0 0 0 0 0 -0 -0 -0 -0 -0 -0 -0 -0 -0 -0 -0 0 0 0 0 0 0
0 0 0 0 0 -0 0 -0 0 0 0 0 -0 -0 -0 -0 -0 -0 -0 -0 0 0 0 0 0 0 0
0 0 0 0 0 0 -0 0 0 0 0 0 0 0 -0 -0 -0 -0 -0 -0 -0 0 0 0 0 0 0
0 0 0 0 -0 -0 -0 0 0 0 0 0 0 0 0 0 -0 -0 -0 -0 0 0 0 0 0 0 0
0 0 0 0 -0 -0 -0 0 0 0 0 0 0 0 0 0 0 0 0 0 0 0 0 0 0 0 0
0 0 0 0 0 -0 0 0 0 0 0 0 0 0 0 0 0 0 0 0 0 0 0 0 0 0 0
Wind_Speed_500mb
16 18 20 23 27 32 36 38 36 35 40 47 52 54 55 55 54 48 45 48 51 51 54 53 53 52 55
16 17 21 25 28 31 33 36 41 44 43 41 44 51 56 58 57 57 55 50 50 54 55 56 58 59 60
19 24 26 29 32 33 35 36 35 35 42 48 46 47 51 57 59 60 59 56 56 57 58 60 59 65 64
15 20 25 28 32 36 37 38 39 41 40 41 47 53 55 54 54 63 64 62 64 63 61 62 67 68 69
15 21 23 26 28 32 35 38 40 41 44 46 43 45 52 56 60 58 62 69 66 66 68 68 67 72 76
17 20 23 23 26 29 34 39 45 48 50 50 52 55 54 57 61 62 66 63 73 67 63 70 72 74 81
17 18 21 25 28 30 33 39 44 47 50 53 56 55 57 59 61 66 70 71 72 76 76 75 71 74 79
16 21 24 28 33 37 41 46 50 55 58 60 60 60 59 60 60 66 71 73 78 77 81 92 84 74 79
17 21 24 28 32 36 40 44 51 57 60 63 67 70 68 70 71 65 64 71 78 81 83 84 98 98 80
18 23 27 30 34 37 41 46 52 57 61 63 66 72 77 77 79 81 81 75 70 79 90 93 90 97 103
21 26 30 34 37 39 42 47 52 56 60 65 68 72 79 84 85 85 85 82 86 81 81 91 102 97 102
23 28 33 36 40 45 49 52 56 58 62 65 68 70 77 85 88 88 88 83 81 84 86 96 99 109 104
27 33 37 41 43 46 50 55 60 61 62 65 70 75 77 82 85 87 87 85 81 69 84 96 105 112 117
28 33 41 47 50 52 54 56 60 62 64 68 71 76 80 86 87 86 82 85 87 69 62 75 80 90 95
27 34 41 48 54 60 63 65 65 67 67 72 72 73 77 83 87 88 87 83 89 85 72 59 40 42 52
28 37 45 52 58 61 64 67 67 66 67 70 77 77 78 82 89 94 90 84 77 91 78 75 80 89 72
Wind_Direction_500mb
350 343 337 329 320 311 303 298 295 294 286 279 275 273 271 274 274 271 270 274 275 275 274 273 270 271 272
2 354 349 343 334 325 313 302 291 287 286 287 284 273 271 268 268 270 271 269 269 271 272 272 269 266 266
3 7 4 358 352 344 335 325 314 304 294 289 288 286 280 275 271 268 268 270 268 266 267 267 269 267 264
6 8 9 3 357 352 346 339 332 326 322 314 304 297 290 286 283 276 273 273 272 270 266 264 263 264 264
357 9 8 5 1 355 347 341 335 329 324 321 319 311 304 295 285 281 276 268 270 270 266 265 263 262 261
5 5 3 360 358 353 348 341 337 333 329 328 325 323 322 317 309 299 285 281 264 270 274 269 264 263 261
8 0 355 352 349 349 345 340 338 335 333 332 328 325 321 318 315 309 303 295 285 272 264 266 269 267 265
352 352 349 347 345 345 343 342 339 337 336 335 334 332 327 322 317 313 311 305 296 287 278 265 267 270 266
340 340 341 341 338 338 340 339 337 335 335 335 333 333 331 328 323 316 309 305 302 297 288 279 265 264 267
329 333 338 338 338 338 335 337 335 332 331 331 331 331 330 328 326 325 321 313 302 297 293 287 279 266 259
325 331 335 336 334 334 335 334 331 329 328 329 331 330 327 326 325 323 319 315 309 300 291 285 283 276 264
323 329 331 332 335 334 332 332 329 328 326 325 324 324 325 323 322 320 317 313 307 300 293 287 280 277 272
324 324 329 333 333 330 328 327 325 324 324 324 322 323 324 320 319 318 318 314 307 298 286 285 281 278 273
321 325 329 328 329 329 328 327 324 324 324 323 324 323 323 322 323 322 319 312 302 295 285 284 287 287 272
317 322 323 324 328 332 328 326 325 324 324 323 322 321 322 323 321 320 314 307 299 290 275 265 273 264 287
315 321 324 327 328 328 325 323 321 321 322 321 321 321 321 321 319 316 312 303 293 286 280 252 262 262 269
Wind_Speed_850mb
16 18 20 23 27 32 36 38 36 35 40 47 52 54 55 55 54 48 45 48 51 51 54 53 53 52 55
16 17 21 25 28 31 33 36 41 44 43 41 44 51 56 58 57 57 55 50 50 54 55 56 58 59 60
19 24 26 29 32 33 35 36 35 35 42 48 46 47 51 57 59 60 59 56 56 57 58 60 59 65 64
15 20 25 28 32 36 37 38 39 41 40 41 47 53 55 54 54 63 64 62 64 63 61 62 67 68 69
15 21 23 26 28 32 35 38 40 41 44 46 43 45 52 56 60 58 62 69 66 66 68 68 67 72 76
17 20 23 23 26 29 34 39 45 48 50 50 52 55 54 57 61 62 66 63 73 67 63 70 72 74 81
17 18 21 25 28 30 33 39 44 47 50 53 56 55 57 59 61 66 70 71 72 76 76 75 71 74 79
16 21 24 28 33 37 41 46 50 55 58 60 60 60 59 60 60 66 71 73 78 77 81 92 84 74 79
17 21 24 28 32 36 40 44 51 57 60 63 67 70 68 70 71 65 64 71 78 81 83 84 98 98 80
18 23 27 30 34 37 41 46 52 57 61 63 66 72 77 77 79 81 81 75 70 79 90 93 90 97 103
21 26 30 34 37 39 42 47 52 56 60 65 68 72 79 84 85 85 85 82 86 81 81 91 102 97 102
23 28 33 36 40 45 49 52 56 58 62 65 68 70 77 85 88 88 88 83 81 84 86 96 99 109 104
27 33 37 41 43 46 50 55 60 61 62 65 70 75 77 82 85 87 87 85 81 69 84 96 105 112 117
28 33 41 47 50 52 54 56 60 62 64 68 71 76 80 86 87 86 82 85 87 69 62 75 80 90 95
27 34 41 48 54 60 63 65 65 67 67 72 72 73 77 83 87 88 87 83 89 85 72 59 40 42 52
28 37 45 52 58 61 64 67 67 66 67 70 77 77 78 82 89 94 90 84 77 91 78 75 80 89 72
Wind_Direction_850mb
350 343 337 329 320 311 303 298 295 294 286 279 275 273 271 274 274 271 270 274 275 275 274 273 270 271 272
2 354 349 343 334 325 313 302 291 287 286 287 284 273 271 268 268 270 271 269 269 271 272 272 269 266 266
3 7 4 358 352 344 335 325 314 304 294 289 288 286 280 275 271 268 268 270 268 266 267 267 269 267 264
6 8 9 3 357 352 346 339 332 326 322 314 304 297 290 286 283 276 273 273 272 270 266 264 263 264 264
357 9 8 5 1 355 347 341 335 329 324 321 319 311 304 295 285 281 276 268 270 270 266 265 263 262 261
5 5 3 360 358 353 348 341 337 333 329 328 325 323 322 317 309 299 285 281 264 270 274 269 264 263 261
8 0 355 352 349 349 345 340 338 335 333 332 328 325 321 318 315 309 303 295 285 272 264 266 269 267 265
352 352 349 347 345 345 343 342 339 337 336 335 334 332 327 322 317 313 311 305 296 287 278 265 267 270 266
340 340 341 341 338 338 340 339 337 335 335 335 333 333 331 328 323 316 309 305 302 297 288 279 265 264 267
329 333 338 338 338 338 335 337 335 332 331 331 331 331 330 328 326 325 321 313 302 297 293 287 279 266 259
325 331 335 336 334 334 335 334 331 329 328 329 331 330 327 326 325 323 319 315 309 300 291 285 283 276 264
323 329 331 332 335 334 332 332 329 328 326 325 324 324 325 323 322 320 317 313 307 300 293 287 280 277 272
324 324 329 333 333 330 328 327 325 324 324 324 322 323 324 320 319 318 318 314 307 298 286 285 281 278 273
321 325 329 328 329 329 328 327 324 324 324 323 324 323 323 322 323 322 319 312 302 295 285 284 287 287 272
317 322 323 324 328 332 328 326 325 324 324 323 322 321 322 323 321 320 314 307 299 290 275 265 273 264 287
315 321 324 327 328 328 325 323 321 321 322 321 321 321 321 321 319 316 312 303 293 286 280 252 262 262 269